C/2021 Q3 ( ATLAS )

Japanese version
Home page
Updated on March 27, 2022

---------------------------------------------------------------------

* Profile

Discovery Date August 26, 2021
Magnitude 19.0 mag
Discoverer Asteroid Terrestrial-Impact Last Alert System (ATLAS) search program

* Pictures

* Orbital Elements

Epoch 2022 Jan. 21.0 TT = JDT 2459600.5
T 2022 Jan. 26.10722 TT                                 Rudenko
q   5.2045822            (2000.0)            P               Q
z  +0.0133848      Peri.  114.09407     -0.09827647     -0.62898188
 +/-0.0000002      Node   307.90127     +0.04958541     +0.77087702
e   0.9303375      Incl.   77.77707     +0.99392305     -0.10065001
From 144 observations 2021 Aug. 19-2022 Mar. 21, mean residual 0".5.

* Magnitudes Graph

        m1 = 7.5 + 5 log d + 10.0 log r

---------------------------------------------------------------------

The orbital elements are published on M.P.E.C. 2022-F14.
The magnitudes graphs are made with Comet for Windows.

---------------------------------------------------------------------

Copyright(C) Seiichi Yoshida (comet@aerith.net). All rights reserved.